EW6425 Weather Reports


time (UTC)temp
C
wind
direction
speed
KPH
gust
KPH
rain 1hr
cm
rain 24hr
cm
rain mn
cm
humidity
%
barometer
mb
20260505041545 7 225 6.4 16.1 0.00 1.80 0.00 80 1006.6
20260505040044 7 230 11.3 19.3 0.00 1.80 0.00 79 1006.4
20260505034543 7 197 9.7 19.3 0.00 1.83 0.00 79 1006.2
20260505033047 7 221 8.0 17.7 0.00 1.83 0.00 79 1006.0
20260505031535 7 201 12.9 22.5 0.00 1.83 0.00 78 1005.8
20260505030032 8 227 9.7 19.3 0.00 1.83 0.00 78 1005.5
20260505024551 8 223 9.7 29.0 0.00 1.83 1.83 78 1005.2
20260505023036 8 212 11.3 24.1 0.00 1.83 1.83 78 1005.1
20260505021543 9 250 12.9 37.0 0.00 1.83 1.83 78 1004.8
20260505020025 9 202 17.7 27.4 0.00 1.83 1.83 78 1004.7
20260505014526 9 233 14.5 29.0 0.00 1.83 1.83 78 1004.6
20260505013023 9 223 11.3 22.5 0.00 1.83 1.83 78 1004.5
20260505011527 9 227 11.3 22.5 0.00 1.83 1.83 78 1004.5
20260505010021 9 232 11.3 19.3 0.00 1.83 1.83 77 1004.4
20260505004531 9 208 9.7 27.4 0.00 1.85 1.83 77 1004.2
20260505003019 10 242 11.3 22.5 0.00 1.85 1.83 76 1004.2
20260505001515 10 238 16.1 27.4 0.00 1.85 1.83 75 1004.1
20260505000015 10 257 11.3 30.6 0.00 1.85 1.83 75 1003.8
20260504234512 10 248 11.3 27.4 0.00 1.96 1.83 72 1003.6
20260504233012 10 229 12.9 24.1 0.00 1.96 1.83 69 1003.4
20260504231510 10 258 14.5 30.6 0.00 1.96 1.83 64 1003.1
20260504230008 10 219 11.3 27.4 0.00 1.96 1.83 65 1002.8
20260504224508 10 230 8.0 25.7 0.00 2.06 1.83 67 1002.7
20260504223006 10 253 8.0 17.7 0.00 2.06 1.83 66 1002.5
20260504221504 11 254 6.4 16.1 0.00 2.06 1.83 64 1002.5
20260504220003 11 233 8.0 29.0 0.00 2.06 1.83 62 1002.3
20260504214501 11 209 11.3 30.6 0.00 2.29 1.83 62 1002.1
20260504213128 11 258 12.9 29.0 0.00 2.29 1.83 62 1002.0
20260504211557 11 225 12.9 35.4 0.00 2.29 1.83 63 1001.8
20260504210101 11 239 16.1 35.4 0.00 2.29 1.83 62 1001.6
20260504204604 11 230 17.7 37.0 0.00 2.39 1.83 63 1001.5
20260504203052 11 229 16.1 35.4 0.00 2.39 1.83 63 1001.3
20260504201548 11 253 11.3 41.8 0.00 2.39 1.83 64 1001.0
20260504200048 10 258 30.6 53.1 0.00 2.39 1.83 64 1001.0
20260504194546 11 275 22.5 41.8 0.00 2.51 1.83 64 1000.7
20260504193045 10 234 20.9 46.7 0.00 2.51 1.83 67 1000.6
20260504191541 10 252 20.9 48.3 0.00 2.51 1.83 70 1000.4
20260504190039 10 234 25.7 45.1 0.00 2.51 1.83 72 1000.3
20260504184536 10 266 20.9 41.8 0.00 2.62 1.83 73 1000.1
20260504183033 9 201 22.5 48.3 0.00 2.62 1.83 74 999.9
20260504181530 9 212 25.7 41.8 0.00 2.62 1.83 74 999.7
20260504180026 8 232 22.5 38.6 0.00 2.62 1.83 78 999.5
20260504174524 8 263 17.7 45.1 0.00 2.62 1.83 81 999.5
20260504173021 7 260 16.1 53.1 0.00 2.62 1.83 83 999.4
20260504171517 6 236 20.9 46.7 0.00 2.62 1.83 84 999.3
20260504081544 2 242 17.7 54.7 0.08 1.24 0.43 93 980.2
20260504050014 3 309 8.0 17.7 0.08 0.89 0.10 93 975.3
20260504044507 3 330 3.2 9.7 0.10 0.91 0.10 93 975.1
20260504043005 3 355 4.8 12.9 0.05 0.89 0.05 93 975.2